Location: Unspecified
(0.0000°N, 0.0000°E)
Time: 04:30:13
(UTC+02:00)

Cosmos 1812 Rocket - Visible Passes

Search period start: 03 September 2015 00:00
Search period end: 13 September 2015 00:00
Orbit: 607 x 632 km, 82.5° (Epoch: 02 September)

Date Brightness Start Highest point End Pass type
(mag) Time Alt. Az. Time Alt. Az. Time Alt. Az.
03 Sep 4.2 21:38:59 10° SSW 21:43:22 55° W 21:47:42 10° N visible
04 Sep 5.3 20:21:09 10° ESE 20:23:07 13° E 20:25:23 10° ENE visible
04 Sep 5.8 21:57:16 10° SW 22:00:55 24° W 22:04:27 10° NNW visible
05 Sep 4.4 20:36:53 10° SSE 20:40:44 29° E 20:44:39 10° NNE visible
05 Sep 6.9 22:17:34 10° W 22:18:33 10° W 22:19:09 10° WNW visible
06 Sep 3.5 20:53:51 10° S 20:58:17 69° E 21:02:43 10° N visible
07 Sep 4.5 21:11:29 10° SSW 21:15:48 49° W 21:20:07 10° NNW visible
08 Sep 6.2 21:29:52 10° SW 21:33:22 22° W 21:36:44 10° NW visible
10 Sep 3.5 20:26:16 10° S 20:30:44 77° E 20:35:11 10° N visible
11 Sep 4.9 20:43:59 10° SSW 20:48:16 44° W 20:52:30 10° NNW visible
12 Sep 6.5 21:02:30 10° SW 21:05:50 20° W 21:08:59 10° NW visible
